Content
SEND FEEDBACK

Daily
Averages
Monthly
Summary
Mexico

COZUMEL, QUINTANA ROO


Home > North America > Mexico > Quintana Roo
Elevation: 4 meters     Latitude: 20 31N     Longitude: 086 56W

WEATHER
 
SELECT A DAY
Number of Records: 124,821;   Date Range: 1/1/95 - 9/15/14
 
SHARE

PRINT THIS DATA

[ ← Previous Day ]
WEATHER ALMANAC - 4 MARCH, 2014
[ Next Day → ]
[ °F ]   °C
Weather ElementAverageHighLow
Temperature22.2 °C27 °C (11:40 am)16 °C (3:41 am)
Dewpoint18.9 °C21 °C (6:44 pm)16 °C (3:41 am)
Humidity83.6 %100 % (2:42 am)61 % (11:40 am)
Barometer1014.6 hPa1016.9 hPa (8:42 am)1013.2 hPa (3:42 pm)
Wind Speed13 km/h25.9 km/h (9:47 am)
Weather ElementAverage
Visibility12.2 km
Wind DirectionESE (100.4 °)

Weather ElementTotal
Precipitation---
Cooling Degree Days3.2 (Base 18.3)
Growing Degree Days11.5 (Base 10)
Averaged from 23 records on 4 March, 2014
WEATHER CONDITIONS BREAKOUT
WIND DIRECTION BREAKOUT
WEATHER BY HOUR - 4 MARCH, 2014
[ °F ]   °C
Local TimeTemperatureDewpointHumidityBarometerVisibilityWind DirectionWind SpeedGust SpeedPrecipitationEventsConditions
1:42 AM19 °C18 °C94 %1014.9 hPa11.3 kmESE (110°)7.4 km/hClear
2:42 AM17 °C17 °C100 %1015.2 hPa11.3 kmEast (80°)7.4 km/hClear
3:41 AM16 °C16 °C100 %1013.9 hPa11.3 kmCalmClear
4:40 AM16 °C16 °C100 %1013.9 hPa11.3 kmEast (90°)7.4 km/hClear
5:43 AM16 °C16 °C100 %1013.9 hPa11.3 kmESE (110°)5.6 km/hClear
6:41 AM17 °C17 °C100 %1015.2 hPa12.9 kmESE (110°)7.4 km/hPartly Cloudy
7:42 AM22 °C19 °C83 %1015.6 hPa12.9 kmEast (100°)9.3 km/hPartly Cloudy
8:42 AM25 °C19 °C69 %1016.9 hPa12.9 kmESE (110°)22.2 km/hPartly Cloudy
9:47 AM26 °C19 °C65 %1016.3 hPa12.9 kmESE (110°)25.9 km/hPartly Cloudy
10:43 AM26 °C19 °C65 %1015.9 hPa12.9 kmEast (100°)22.2 km/hScattered Clouds
11:40 AM27 °C19 °C61 %1014.9 hPa12.9 kmESE (120°)22.2 km/hMostly Cloudy
12:52 PM27 °C19 °C61 %1014.2 hPa12.9 kmESE (110°)16.7 km/hMostly Cloudy
1:45 PM26 °C18 °C61 %1013.9 hPa12.9 kmSE (130°)18.5 km/hMostly Cloudy
2:42 PM27 °C19 °C61 %1013.9 hPa12.9 kmESE (120°)22.2 km/hScattered Clouds
3:42 PM25 °C20 °C74 %1013.2 hPa12.9 kmEast (100°)22.2 km/hScattered Clouds
4:46 PM25 °C20 °C74 %1013.5 hPa12.9 kmESE (120°)22.2 km/hScattered Clouds
5:47 PM24 °C20 °C78 %1013.5 hPa12.9 kmESE (120°)11.1 km/hScattered Clouds
6:44 PM22 °C21 °C94 %1013.5 hPa12.9 kmESE (120°)11.1 km/hScattered Clouds
7:42 PM22 °C21 °C94 %1014.2 hPa11.3 kmESE (120°)13 km/hScattered Clouds
8:49 PM22 °C21 °C94 %1015.6 hPa11.3 kmEast (90°)11.1 km/hScattered Clouds
9:41 PM21 °C21 °C100 %1014.9 hPa11.3 kmESE (110°)9.3 km/hScattered Clouds
10:45 PM21 °C20 °C94 %1014.6 hPa11.3 kmSE (130°)5.6 km/hPartly Cloudy
11:42 PM21 °C21 °C100 %1014.2 hPa11.3 kmCalmPartly Cloudy
Hourly data recorded from MMCZ, located 0 kilometers away from Cozumel, Quintana Roo







STORIES FROM OUR PARTNERS